TimeEST,TemperatureF,Dew PointF,Humidity,Sea Level PressureIn,VisibilityMPH,Wind Direction,Wind SpeedMPH,Gust SpeedMPH,PrecipitationIn,Events,Conditions,WindDirDegrees,DateUTC
12:15 AM,38.3,27.0,64,30.04,10.0,NNW,5.8,-,N/A,,Overcast,330,2012-11-04 04:15:00
12:35 AM,38.3,27.0,64,30.04,10.0,NNW,5.8,-,N/A,,Overcast,340,2012-11-04 04:35:00
12:55 AM,37.9,27.1,65,30.04,10.0,Calm,Calm,-,N/A,,Overcast,0,2012-11-04 04:55:00
1:15 AM,37.8,27.3,66,30.04,10.0,Calm,Calm,-,N/A,,Overcast,0,2012-11-04 05:15:00
1:35 AM,37.8,27.3,66,30.04,10.0,Calm,Calm,-,N/A,,Overcast,0,2012-11-04 05:35:00
1:55 AM,37.6,27.3,66,30.03,10.0,NW,4.6,-,N/A,,Overcast,320,2012-11-04 05:55:00
1:15 AM,37.6,27.0,66,30.03,10.0,NW,6.9,-,N/A,,Overcast,320,2012-11-04 06:15:00
1:35 AM,37.6,26.8,65,30.03,10.0,NNW,5.8,-,N/A,,Overcast,330,2012-11-04 06:35:00
1:55 AM,37.6,26.4,64,30.04,10.0,NNW,5.8,-,N/A,,Overcast,340,2012-11-04 06:55:00
2:15 AM,37.6,26.6,65,30.04,10.0,NNW,6.9,-,N/A,,Overcast,330,2012-11-04 07:15:00
2:35 AM,37.4,26.6,65,30.03,10.0,Calm,Calm,-,N/A,,Overcast,0,2012-11-04 07:35:00
2:55 AM,37.4,26.6,65,30.03,10.0,NW,3.5,-,N/A,,Overcast,320,2012-11-04 07:55:00
3:15 AM,37.2,27.5,68,30.03,10.0,WNW,3.5,-,N/A,,Overcast,300,2012-11-04 08:15:00
3:35 AM,37.4,27.3,67,30.03,10.0,NNW,3.5,-,N/A,,Overcast,330,2012-11-04 08:35:00
3:55 AM,37.4,26.4,65,30.03,10.0,NNW,4.6,-,N/A,,Overcast,340,2012-11-04 08:55:00
4:15 AM,37.4,26.4,65,30.03,10.0,NNW,3.5,-,N/A,,Overcast,330,2012-11-04 09:15:00
4:35 AM,37.0,26.6,66,30.03,10.0,Calm,Calm,-,N/A,,Overcast,0,2012-11-04 09:35:00
5:53 AM,37.4,26.6,65,30.03,10.0,NNW,8.1,-,N/A,,Overcast,330,2012-11-04 10:53:00
6:53 AM,35.6,24.8,65,30.04,10.0,NNW,9.2,-,N/A,,Overcast,340,2012-11-04 11:53:00
7:53 AM,35.6,23.0,60,30.07,10.0,NW,9.2,-,N/A,,Overcast,320,2012-11-04 12:53:00
8:53 AM,35.6,23.0,60,30.05,10.0,NNW,9.2,-,N/A,,Overcast,330,2012-11-04 13:53:00
9:53 AM,35.6,23.0,60,30.05,10.0,NW,11.5,-,N/A,,Overcast,310,2012-11-04 14:53:00
10:53 AM,37.4,24.8,60,30.05,10.0,NW,11.5,-,N/A,,Overcast,310,2012-11-04 15:53:00
11:53 AM,37.4,24.8,60,30.04,10.0,WNW,9.2,-,N/A,,Overcast,300,2012-11-04 16:53:00
12:53 PM,37.4,24.8,60,30.03,10.0,NW,8.1,-,N/A,,Overcast,310,2012-11-04 17:53:00
1:59 PM,37.4,26.6,65,30.03,10.0,WNW,8.1,-,N/A,,Overcast,300,2012-11-04 18:59:00
2:53 PM,37.4,26.6,65,30.03,10.0,NW,10.4,-,N/A,,Overcast,320,2012-11-04 19:53:00
3:53 PM,37.4,26.6,65,30.03,10.0,NW,6.9,-,N/A,,Overcast,320,2012-11-04 20:53:00
4:53 PM,37.4,26.6,65,30.03,10.0,NW,5.8,-,N/A,,Overcast,310,2012-11-04 21:53:00
5:53 PM,37.4,26.6,65,30.04,10.0,WNW,8.1,-,N/A,,Overcast,290,2012-11-04 22:53:00
6:53 PM,37.4,24.8,60,30.05,10.0,NNW,4.6,-,N/A,,Overcast,330,2012-11-04 23:53:00
7:53 PM,35.6,23.0,60,30.04,10.0,NNW,5.8,-,N/A,,Overcast,330,2012-11-05 00:53:00
8:15 PM,36.0,24.3,63,30.04,10.0,North,6.9,-,N/A,,Overcast,360,2012-11-05 01:15:00
8:35 PM,35.8,23.7,62,30.05,10.0,NNW,8.1,16.1,N/A,,Overcast,340,2012-11-05 01:35:00
8:53 PM,35.6,23.0,60,30.04,10.0,NW,10.4,-,N/A,,Overcast,320,2012-11-05 01:53:00
8:55 PM,35.6,22.6,59,30.04,10.0,NW,11.5,-,N/A,,Overcast,320,2012-11-05 01:55:00
9:15 PM,35.6,22.5,59,30.04,10.0,NW,8.1,-,N/A,,Overcast,310,2012-11-05 02:15:00
9:35 PM,35.2,22.6,60,30.05,10.0,WNW,6.9,-,N/A,,Overcast,300,2012-11-05 02:35:00
9:55 PM,35.2,23.0,61,30.05,10.0,NW,5.8,-,N/A,,Overcast,310,2012-11-05 02:55:00
10:15 PM,34.9,22.3,60,30.05,10.0,NW,9.2,-,N/A,,Overcast,320,2012-11-05 03:15:00
10:35 PM,34.7,21.9,60,30.05,10.0,NW,8.1,-,N/A,,Overcast,320,2012-11-05 03:35:00
10:55 PM,34.5,21.9,60,30.05,10.0,NW,8.1,-,N/A,,Overcast,320,2012-11-05 03:55:00